sat.trackr.live / text

‹ back to catalog

STARLINK-5657

NORAD 55342 · 2023-013M

PAYLOAD ACTIVE UNKNOWN

§ Identity

Operator
Country
US
Launch date
2023-01-26
Launch site
AFETR
Launch vehicle
Mass (kg)
RCS (m²)

Purposes: comms

External: N2YO · Heavens-Above · Gunter

§ Orbital elements

Epoch: 2026-09-20T12:07:52.691808Z

Period
94.27 min
Inclination
43.0041°
Eccentricity
0.0001252
Mean motion
15.27577916 rev/d
Perigee alt
482.2 km
Apogee alt
483.9 km
Semi-major
6,861.2 km
B*
1.0682e-6
RAAN
283.5608°
Arg perigee
299.8096°
Mean anomaly
60.2631°
Rev number
20,146

§ Raw data

STARLINK-56571 55342U 23013M   26263.50547097 -.00000233  00000+0  10682-5 0  99942 55342  43.0041 283.5608 0001252 299.8096  60.2631 15.27577916201469

JSON: /api/v1/satellites/55342 · /tle

For live sub-satellite position, see the globe view (requires WebGL).

§ Visibility from observer

Set your observer location to see the next 7 days of passes ≥ 10°. The values pass through the URL so the page stays shareable.

No JS? Fill the form by hand. The geolocation button needs JavaScript.